GW0807 Weather Reports


time (UTC)temp
C
wind
direction
speed
KPH
gust
KPH
rain 1hr
cm
rain 24hr
cm
rain mn
cm
humidity
%
barometer
mb
20260505194500 26 172 32.2 49.9 0.00 0.00 0.00 46 1010.7
20260505194004 26 168 33.8 49.9 0.00 0.00 0.00 45 1010.7
20260505193000 26 176 32.2 45.1 0.00 0.00 0.00 48 1010.8
20260505192004 26 170 32.2 38.6 0.00 0.00 0.00 48 1011.0
20260505185505 26 166 30.6 40.2 0.00 0.00 0.00 47 1011.3
20260505185005 26 163 30.6 40.2 0.00 0.00 0.00 48 1011.4
20260505184004 26 157 30.6 46.7 0.00 0.00 0.00 47 1011.5
20260505183504 26 175 27.4 37.0 0.00 0.00 0.00 49 1011.6
20260505183005 26 152 25.7 38.6 0.00 0.00 0.00 48 1011.6
20260505182505 26 162 27.4 37.0 0.00 0.00 0.00 49 1011.6
20260505182005 26 166 29.0 38.6 0.00 0.00 0.00 49 1011.7
20260505181505 25 170 30.6 37.0 0.00 0.00 0.00 52 1011.8
20260505180005 26 148 27.4 33.8 0.00 0.00 0.00 49 1011.9
20260505175500 26 161 25.7 32.2 0.00 0.00 0.00 49 1011.9
20260505175000 26 166 24.1 32.2 0.00 0.00 0.00 49 1011.9
20260505174504 26 170 27.4 32.2 0.00 0.00 0.00 48 1011.9
20260505174000 26 172 20.9 35.4 0.00 0.00 0.00 48 1011.9
20260505173502 25 162 19.3 32.2 0.00 0.00 0.00 50 1011.9
20260505172459 25 181 24.1 27.4 0.00 0.00 0.00 53 1012.0
20260505172003 25 191 20.9 27.4 0.00 0.00 0.00 55 1012.1
20260505171505 25 186 19.3 22.5 0.00 0.00 0.00 55 1012.2
20260505170500 24 182 19.3 25.7 0.00 0.00 0.00 55 1012.4
20260505170001 24 186 20.9 25.7 0.00 0.00 0.00 59 1012.4
20260505165500 24 190 19.3 25.7 0.00 0.00 0.00 57 1012.5
20260505165004 24 191 19.3 25.7 0.00 0.00 0.00 58 1012.5
20260505163005 23 186 20.9 29.0 0.00 0.00 0.00 56 1012.5
20260505162004 23 186 19.3 22.5 0.00 0.00 0.00 59 1012.7
20260505161501 23 192 19.3 24.1 0.00 0.00 0.00 59 1012.8
20260505160500 23 187 19.3 22.5 0.00 0.00 0.00 59 1012.8
20260505153002 22 190 17.7 22.5 0.00 0.00 0.00 62 1013.0
20260505152505 22 194 19.3 22.5 0.00 0.00 0.00 63 1013.0
20260505152005 22 196 16.1 22.5 0.00 0.00 0.00 63 1013.0
20260505151505 21 192 17.7 22.5 0.00 0.00 0.00 62 1013.1
20260505150504 21 190 17.7 25.7 0.00 0.00 0.00 63 1012.9
20260505140504 21 205 19.3 22.5 0.00 0.00 0.00 64 1012.7
20260505124500 18 198 19.3 24.1 0.00 0.00 0.00 68 1012.9
20260505124000 18 194 19.3 24.1 0.00 0.00 0.00 69 1012.9
20260505123000 18 194 16.1 19.3 0.00 0.00 0.00 69 1012.8
20260505122459 18 212 14.5 24.1 0.00 0.00 0.00 68 1012.7
20260505122002 18 215 17.7 24.1 0.00 0.00 0.00 69 1012.7
20260505121000 18 203 16.1 24.1 0.00 0.00 0.00 69 1012.6
20260505120500 18 208 17.7 29.0 0.00 0.00 0.00 68 1012.6
20260505115959 18 213 16.1 24.1 0.00 0.00 0.00 68 1012.6
20260505115459 18 203 17.7 22.5 0.00 0.00 0.00 70 1012.6
20260505115000 17 213 17.7 24.1 0.00 0.00 0.00 70 1012.5
20260505114458 17 201 16.1 24.1 0.00 0.00 0.00 70 1012.5
20260505113459 17 192 19.3 29.0 0.00 0.00 0.00 71 1012.3
20260505112959 17 201 19.3 29.0 0.00 0.00 0.00 71 1012.2
20260505112459 17 205 20.9 27.4 0.00 0.00 0.00 72 1012.1
20260505111959 17 193 19.3 29.0 0.00 0.00 0.00 72 1012.1
20260505111459 17 202 20.9 30.6 0.00 0.00 0.00 71 1012.2
20260505110459 17 194 22.5 30.6 0.00 0.00 0.00 72 1012.0
20260505102005 16 200 20.9 25.7 0.00 0.00 0.00 74 1012.0
20260505101505 16 200 20.9 25.7 0.00 0.00 0.00 74 1011.9
20260505101000 16 204 19.3 27.4 0.00 0.00 0.00 74 1011.9
20260505100005 17 198 20.9 29.0 0.00 0.00 0.00 73 1011.9
20260505095459 17 205 19.3 27.4 0.00 0.00 0.00 72 1011.8
20260505095000 16 217 17.7 27.4 0.00 0.00 0.00 72 1011.8
20260505094000 17 188 19.3 29.0 0.00 0.00 0.00 73 1011.8
20260505093459 17 211 17.7 29.0 0.00 0.00 0.00 73 1011.8
20260505092504 17 202 20.9 24.1 0.00 0.00 0.00 73 1011.8
20260505092000 17 200 16.1 22.5 0.00 0.00 0.00 73 1011.8
20260505091000 17 205 17.7 22.5 0.00 0.00 0.00 73 1011.8
20260505090500 17 196 17.7 25.7 0.00 0.00 0.00 72 1011.8
20260505090003 17 198 20.9 25.7 0.00 0.00 0.00 72 1011.6
20260505085459 17 198 19.3 24.1 0.00 0.00 0.00 73 1011.7
20260505085000 17 194 17.7 22.5 0.00 0.00 0.00 72 1011.6
20260505084504 17 202 17.7 25.7 0.00 0.00 0.00 73 1011.6
20260505083500 17 197 17.7 24.1 0.00 0.00 0.00 74 1011.6
20260505083005 17 207 19.3 25.7 0.00 0.00 0.00 74 1011.5
20260505082500 17 210 20.9 25.7 0.00 0.00 0.00 74 1011.6
20260505082000 17 200 19.3 27.4 0.00 0.00 0.00 74 1011.6
20260505081000 17 188 20.9 27.4 0.00 0.00 0.00 73 1011.7
20260505080500 17 196 19.3 27.4 0.00 0.00 0.00 72 1011.6
20260505080004 17 192 20.9 27.4 0.00 0.00 0.00 72 1011.5
20260505075459 17 184 20.9 27.4 0.00 0.00 0.00 72 1011.5
20260505075000 17 190 22.5 30.6 0.00 0.00 0.00 71 1011.5
20260505074500 17 182 22.5 30.6 0.00 0.00 0.00 70 1011.5
20260505074004 17 190 22.5 30.6 0.00 0.00 0.00 71 1011.5
20260505073459 17 173 22.5 30.6 0.00 0.00 0.00 71 1011.4
20260505072459 17 189 24.1 30.6 0.00 0.00 0.00 70 1011.4
20260505071500 17 175 22.5 30.6 0.00 0.00 0.00 70 1011.4
20260505070959 17 186 25.7 32.2 0.00 0.00 0.00 70 1011.4
20260505070500 17 185 24.1 32.2 0.00 0.00 0.00 70 1011.5
20260505070005 17 184 25.7 33.8 0.00 0.00 0.00 70 1011.4
20260505065459 17 194 27.4 33.8 0.00 0.00 0.00 70 1011.4
20260505065004 17 189 27.4 33.8 0.00 0.00 0.00 71 1011.4
20260505063959 17 184 25.7 32.2 0.00 0.00 0.00 72 1011.4
20260505063459 17 190 27.4 32.2 0.00 0.00 0.00 72 1011.4
20260505063000 17 183 25.7 35.4 0.00 0.00 0.00 72 1011.4
20260505062459 17 171 29.0 37.0 0.00 0.00 0.00 71 1011.4
20260505061959 17 179 25.7 33.8 0.00 0.00 0.00 70 1011.4
20260505061500 17 173 27.4 37.0 0.00 0.00 0.00 69 1011.4
20260505061004 17 171 27.4 33.8 0.00 0.00 0.00 69 1011.5
20260505060500 17 173 25.7 33.8 0.00 0.00 0.00 69 1011.5
20260505055958 17 170 29.0 37.0 0.00 0.00 0.00 69 1011.5
20260505055458 17 169 30.6 37.0 0.00 0.00 0.00 68 1011.5
20260505054958 17 175 30.6 38.6 0.00 0.00 0.00 69 1011.4
20260505054458 17 169 32.2 38.6 0.00 0.00 0.00 68 1011.5
20260505053958 17 160 30.6 35.4 0.00 0.00 0.00 68 1011.5
20260505053459 17 182 30.6 35.4 0.00 0.00 0.00 68 1011.4
20260505052958 17 180 30.6 33.8 0.00 0.00 0.00 69 1011.4
20260505052458 17 169 29.0 35.4 0.00 0.00 0.00 69 1011.5
20260505051958 17 171 30.6 35.4 0.00 0.00 0.00 70 1011.4
20260505051458 17 190 29.0 37.0 0.00 0.00 0.00 70 1011.4
20260505050959 17 167 29.0 32.2 0.00 0.00 0.00 71 1011.4
20260505050459 17 158 25.7 32.2 0.00 0.00 0.00 72 1011.4
20260505041504 16 117 9.7 14.5 0.00 0.00 0.00 80 1011.4
20260505041004 16 158 9.7 14.5 0.00 0.00 0.00 79 1011.4
20260505040504 16 137 8.0 12.9 0.00 0.00 0.00 80 1011.3
20260505040007 16 133 8.0 16.1 0.00 0.00 0.00 81 1011.3
20260505035505 16 140 8.0 14.5 0.00 0.00 0.00 81 1011.3
20260505035005 16 138 9.7 14.5 0.00 0.00 0.00 80 1011.2
20260505034005 16 151 6.4 14.5 0.00 0.00 0.00 79 1011.2
20260505033505 16 148 8.0 14.5 0.00 0.00 0.00 78 1011.2
20260505033005 16 161 9.7 14.5 0.00 0.00 0.00 78 1011.1
20260505032505 16 138 6.4 14.5 0.00 0.00 0.00 78 1011.2
20260505032004 16 140 8.0 14.5 0.00 0.00 0.00 77 1011.2
20260505031505 16 144 8.0 14.5 0.00 0.00 0.00 77 1011.2
20260505031004 16 148 8.0 14.5 0.00 0.00 0.00 78 1011.1
20260505030505 16 145 9.7 14.5 0.00 0.00 0.00 78 1011.2
20260505025505 16 153 8.0 17.7 0.00 0.00 0.00 79 1011.3
20260505025005 16 134 8.0 14.5 0.00 0.00 0.00 80 1011.2
20260505024505 16 140 8.0 14.5 0.00 0.00 0.00 80 1011.3
20260505024004 16 136 9.7 16.1 0.00 0.00 0.00 81 1011.3
20260505023504 16 117 9.7 16.1 0.00 0.00 0.00 80 1011.2
20260505023005 16 148 11.3 16.1 0.00 0.00 0.00 80 1011.2
20260505022504 16 141 11.3 17.7 0.00 0.00 0.00 79 1011.2
20260505022005 16 127 9.7 17.7 0.00 0.00 0.00 79 1011.1
20260505021504 16 138 11.3 17.7 0.00 0.00 0.00 79 1011.2
20260505021004 16 153 11.3 16.1 0.00 0.00 0.00 79 1011.1
20260505020504 16 161 9.7 16.1 0.00 0.00 0.00 79 1011.1
20260505020005 16 177 9.7 17.7 0.00 0.00 0.00 78 1011.1
20260505015543 17 143 11.3 19.3 0.00 0.00 0.00 77 1011.0
20260505015004 17 159 11.3 17.7 0.00 0.00 0.00 77 1011.2
20260505014504 17 140 11.3 17.7 0.00 0.00 0.00 77 1011.2
20260505014005 17 144 11.3 17.7 0.00 0.00 0.00 77 1011.2
20260505013504 17 128 11.3 17.7 0.00 0.00 0.00 77 1011.1
20260505013004 17 156 9.7 17.7 0.00 0.00 0.00 76 1011.2
20260505012505 17 128 11.3 17.7 0.00 0.00 0.00 76 1011.1
20260505011505 17 148 11.3 17.7 0.00 0.00 0.00 75 1011.0
20260505011004 17 130 12.9 17.7 0.00 0.00 0.00 74 1011.1
20260505010504 17 137 9.7 17.7 0.00 0.00 0.00 74 1011.1
20260505010005 17 161 11.3 17.7 0.00 0.00 0.00 73 1010.9
20260505005505 17 164 9.7 17.7 0.00 0.00 0.00 72 1010.9
20260505004504 17 135 12.9 19.3 0.00 0.00 0.00 69 1010.8
20260505004004 17 156 11.3 16.1 0.00 0.00 0.00 69 1010.8
20260505003005 17 137 9.7 22.5 0.00 0.00 0.00 66 1010.7
20260505002004 17 141 11.3 17.7 0.00 0.00 0.00 66 1010.7
20260505001505 18 121 11.3 16.1 0.00 0.00 0.00 66 1010.6
20260505001004 18 133 9.7 16.1 0.00 0.00 0.00 65 1010.6
20260505000504 18 142 9.7 16.1 0.00 0.00 0.00 62 1010.5
20260505000005 18 120 8.0 17.7 0.00 0.00 0.00 59 1010.5
20260504235004 19 132 9.7 17.7 0.00 0.00 0.00 55 1010.4
20260504234500 20 150 11.3 17.7 0.00 0.00 0.00 54 1010.5
20260504234002 20 155 11.3 19.3 0.00 0.00 0.00 53 1010.4
20260504233500 20 154 14.5 29.0 0.00 0.00 0.00 52 1010.5
20260504233000 20 156 14.5 29.0 0.00 0.00 0.00 51 1010.5
20260504232504 20 162 16.1 22.5 0.00 0.00 0.00 51 1010.5
20260504232004 20 166 14.5 27.4 0.00 0.00 0.00 51 1010.3
20260504231504 20 164 19.3 27.4 0.00 0.00 0.00 51 1010.5
20260504231000 20 161 14.5 24.1 0.00 0.00 0.00 50 1010.5
20260504230005 21 138 14.5 19.3 0.00 0.00 0.00 50 1010.4
20260504225502 21 161 16.1 25.7 0.00 0.00 0.00 50 1010.5
20260504225004 21 171 16.1 25.7 0.00 0.00 0.00 50 1010.4
20260504223959 21 163 17.7 25.7 0.00 0.00 0.00 49 1010.5
20260504223500 21 169 20.9 25.7 0.00 0.00 0.00 49 1010.5
20260504223004 21 169 19.3 27.4 0.00 0.00 0.00 48 1010.5
20260504222502 21 161 19.3 25.7 0.00 0.00 0.00 48 1010.4
20260504222000 21 174 16.1 25.7 0.00 0.00 0.00 49 1010.4
20260504221504 21 170 14.5 24.1 0.00 0.00 0.00 48 1010.4
20260504220959 21 165 16.1 25.7 0.00 0.00 0.00 46 1010.4
20260504220504 21 175 17.7 30.6 0.00 0.00 0.00 45 1010.5
20260504220004 21 161 16.1 30.6 0.00 0.00 0.00 47 1010.6
20260504215004 21 174 16.1 30.6 0.00 0.00 0.00 46 1010.6
20260504214504 21 161 16.1 30.6 0.00 0.00 0.00 47 1010.5
20260504213504 22 157 22.5 35.4 0.00 0.00 0.00 40 1010.7
20260504213004 22 161 24.1 35.4 0.00 0.00 0.00 40 1010.7
20260504212505 22 155 19.3 25.7 0.00 0.00 0.00 42 1010.7
20260504212005 22 159 20.9 27.4 0.00 0.00 0.00 40 1010.7
20260504211504 22 170 20.9 27.4 0.00 0.00 0.00 42 1010.8
20260504211005 22 164 17.7 27.4 0.00 0.00 0.00 42 1010.9
20260504210504 21 141 14.5 27.4 0.00 0.00 0.00 42 1010.7
20260504210004 22 148 14.5 27.4 0.00 0.00 0.00 44 1010.7
20260504205504 22 150 17.7 27.4 0.00 0.00 0.00 43 1010.7
20260504205000 22 153 17.7 25.7 0.00 0.00 0.00 43 1010.8
20260504204505 22 126 16.1 25.7 0.00 0.00 0.00 44 1010.8
20260504203500 22 174 20.9 25.7 0.00 0.00 0.00 42 1010.8
20260504203004 22 157 20.9 29.0 0.00 0.00 0.00 43 1010.8
20260504202504 22 142 19.3 25.7 0.00 0.00 0.00 42 1010.9
20260504202004 22 177 20.9 30.6 0.00 0.00 0.00 41 1011.0
20260504201504 22 167 27.4 30.6 0.00 0.00 0.00 39 1010.9
20260504201000 22 176 24.1 32.2 0.00 0.00 0.00 39 1011.0
20260504200502 22 169 24.1 30.6 0.00 0.00 0.00 37 1011.1
20260504195504 23 154 20.9 25.7 0.00 0.00 0.00 39 1011.2
20260504195004 23 170 17.7 25.7 0.00 0.00 0.00 38 1011.3